Volver al catálogo

STARLINK-34330

ActivoComunicacionesVLEO
NORAD 64227·PAYLOAD·🇺🇸 United States

Lanzado May 31, 2025 desde Vandenberg Space Force Base

Loading…

Próximos Pases (próximas 24 horas)

TLE

ActualizadoSource: CelesTrak SupGP

Época: Sep 14, 2026, 14:11 UTC

1 64227C 25117AA  26257.59145833 -.00028255  00000+0 -83500-3 0  2576
2 64227  53.1572 241.0326 0001360  92.2522 259.8328 15.34397388    15

Sigue STARLINK-34330 en tiempo real con AllMySat

Download on the App Store